Location: Derby
(52.9213°N, 1.4761°W)
Time: 17:04:01
(UTC+01:00)

A-11 Canister half - Pass Details

Date: 27 May 2025
Orbit: 1524 x 1684 km, 47.3° (Epoch: 14 June)

Event Time Altitude Azimuth Distance (km) Brightness Sun altitude
Rises 23:26:50 0° 283° (WNW) 4,747 12.1 -12.7°
Reaches altitude 10° 23:30:06 10° 276° (W) 3,782 11.4 -12.9°
Maximum altitude 23:38:44 40° 212° (SSW) 2,244 9.6 -13.4°
Enters shadow 23:45:41 17° 154° (SSE) 3,355 10.1 -13.7°
